| time (UTC) | temp F | wind direction | speed knots | gust knots | rain 1hr in | rain 24hr in | rain mn in | humidity % | barometer mb |
| 20260504213034 | 85 | 322 | 2.6 | 2.6 | 0.00 | 0.00 | 0.00 | 18 | 1006.8 |
| 20260504212040 | 85 | 339 | 1.7 | 1.7 | 0.00 | 0.00 | 0.00 | 19 | 1006.8 |
| 20260504211109 | 85 | 284 | 1.7 | 1.7 | 0.00 | 0.00 | 0.00 | 19 | 1006.8 |
| 20260504210027 | 85 | 300 | 1.7 | 1.7 | 0.00 | 0.00 | 0.00 | 20 | 1007.0 |
| 20260504205026 | 85 | 271 | 1.7 | 1.7 | 0.00 | 0.00 | 0.00 | 19 | 1006.9 |
| 20260504204031 | 85 | 255 | 0.9 | 0.9 | 0.00 | 0.00 | 0.00 | 17 | 1006.7 |
| 20260504203046 | 85 | 277 | 1.7 | 2.6 | 0.00 | 0.00 | 0.00 | 17 | 1006.8 |
| 20260504202041 | 84 | 229 | 2.6 | 2.6 | 0.00 | 0.00 | 0.00 | 17 | 1006.9 |
| 20260504201037 | 84 | 222 | 2.6 | 2.6 | 0.00 | 0.00 | 0.00 | 17 | 1006.8 |
| 20260504200053 | 84 | 238 | 2.6 | 2.6 | 0.00 | 0.00 | 0.00 | 17 | 1007.0 |
| 20260504195033 | 84 | 237 | 4.3 | 4.3 | 0.00 | 0.00 | 0.00 | 17 | 1006.8 |
| 20260504194022 | 84 | 232 | 3.5 | 140.8 | 0.00 | 0.00 | 0.00 | 19 | 1006.8 |
| 20260504193029 | 83 | 234 | 1.7 | 2.6 | 0.00 | 0.00 | 0.00 | 19 | 1006.6 |
| 20260504192028 | 83 | 244 | 2.6 | 2.6 | 0.00 | 0.00 | 0.00 | 19 | 1006.7 |
| 20260504191019 | 83 | 232 | 1.7 | 2.6 | 0.00 | 0.00 | 0.00 | 19 | 1006.7 |
| 20260504190026 | 83 | 211 | 2.6 | 2.6 | 0.00 | 0.00 | 0.00 | 20 | 1006.6 |
| 20260504185042 | 83 | 228 | 3.5 | 3.5 | 0.00 | 0.00 | 0.00 | 20 | 1007.0 |
| 20260504184019 | 82 | 217 | 2.6 | 2.6 | 0.00 | 0.00 | 0.00 | 21 | 1007.1 |
| 20260504183044 | 82 | 231 | 1.7 | 1.7 | 0.00 | 0.00 | 0.00 | 23 | 1007.4 |
| 20260504182024 | 81 | 176 | 1.7 | 1.7 | 0.00 | 0.00 | 0.00 | 23 | 1007.4 |
| 20260504181023 | 81 | 117 | 1.7 | 1.7 | 0.00 | 0.00 | 0.00 | 23 | 1007.4 |
| 20260504180031 | 81 | 177 | 1.7 | 1.7 | 0.00 | 0.00 | 0.00 | 23 | 1007.4 |
| 20260504175030 | 81 | 45 | 0.9 | 1.7 | 0.00 | 0.00 | 0.00 | 24 | 1007.4 |
| 20260504174042 | 80 | 205 | 1.7 | 1.7 | 0.00 | 0.00 | 0.00 | 24 | 1007.6 |
| 20260504173042 | 80 | 17 | 0.9 | 1.7 | 0.00 | 0.00 | 0.00 | 24 | 1007.5 |
| 20260504172020 | 80 | 222 | 1.7 | 1.7 | 0.00 | 0.00 | 0.00 | 26 | |
| 20260504171026 | 80 | 183 | 1.7 | 1.7 | 0.00 | 0.00 | 0.00 | 26 | 1007.7 |
| 20260504151021 | 76 | 223 | 1.7 | 1.7 | 0.00 | 0.00 | 0.00 | 31 | 1007.6 |
| 20260504141055 | 74 | 163 | 1.7 | 1.7 | 0.00 | 0.00 | 0.00 | 31 | 1007.4 |
| 20260504081023 | 75 | 194 | 0.0 | 0.0 | 0.00 | 0.00 | 0.00 | 29 | 1006.0 |
| 20260504045028 | 79 | 263 | 0.0 | 0.9 | 0.00 | 0.00 | 0.00 | 24 | 1006.8 |
| 20260504044025 | 79 | 201 | 0.9 | 0.9 | 0.00 | 0.00 | 0.00 | 24 | 1006.8 |
| 20260504043023 | 79 | 198 | 1.7 | 1.7 | 0.00 | 0.00 | 0.00 | 24 | 1006.7 |
| 20260504042020 | 80 | 206 | 1.7 | 2.6 | 0.00 | 0.00 | 0.00 | 23 | 1006.6 |
| 20260504041033 | 80 | 244 | 1.7 | 1.7 | 0.00 | 0.00 | 0.00 | 22 | 1006.6 |
| 20260504040024 | 80 | 193 | 1.7 | 2.6 | 0.00 | 0.00 | 0.00 | 21 | 1006.3 |
| 20260504035039 | 81 | 243 | 2.6 | 2.6 | 0.00 | 0.00 | 0.00 | 20 | 1006.0 |
| 20260504034058 | 81 | 220 | 2.6 | 2.6 | 0.00 | 0.00 | 0.00 | 19 | 1005.7 |
| 20260504033025 | 82 | 209 | 2.6 | 3.5 | 0.00 | 0.00 | 0.00 | 18 | 1005.5 |
| 20260504032031 | 82 | 229 | 4.3 | 4.3 | 0.00 | 0.00 | 0.00 | 17 | 1005.3 |
| 20260504031021 | 83 | 237 | 3.5 | 140.8 | 0.00 | 0.00 | 0.00 | 16 | 1005.0 |
| 20260504030036 | 83 | 235 | 2.6 | 3.5 | 0.00 | 0.00 | 0.00 | 15 | 1004.8 |
| 20260504025045 | 84 | 233 | 3.5 | 3.5 | 0.00 | 0.00 | 0.00 | 15 | 1004.4 |
| 20260504024042 | 84 | 242 | 3.5 | 3.5 | 0.00 | 0.00 | 0.00 | 14 | 1004.1 |
| 20260504023028 | 85 | 235 | 3.5 | 4.3 | 0.00 | 0.00 | 0.00 | 14 | 1004.0 |
| 20260504022034 | 85 | 217 | 3.5 | 3.5 | 0.00 | 0.00 | 0.00 | 14 | 1003.9 |
| 20260504021053 | 85 | 243 | 3.5 | 3.5 | 0.00 | 0.00 | 0.00 | 13 | 1003.8 |
| 20260504020035 | 86 | 216 | 3.5 | 3.5 | 0.00 | 0.00 | 0.00 | 13 | 1003.6 |
| 20260504015025 | 86 | 232 | 2.6 | 2.6 | 0.00 | 0.00 | 0.00 | 13 | 1003.5 |
| 20260504014025 | 87 | 232 | 4.3 | 139.9 | 0.00 | 0.00 | 0.00 | 12 | 1003.5 |
| 20260504013031 | 87 | 217 | 4.3 | 139.9 | 0.00 | 0.00 | 0.00 | 11 | 1003.2 |
| 20260504012052 | 88 | 223 | 4.3 | 139.9 | 0.00 | 0.00 | 0.00 | 11 | 1003.2 |
| 20260504011045 | 88 | 247 | 5.2 | 5.2 | 0.00 | 0.00 | 0.00 | 11 | 1003.4 |
| 20260504010022 | 89 | 223 | 4.3 | 4.3 | 0.00 | 0.00 | 0.00 | 11 | 1003.4 |
| 20260504005044 | 89 | 234 | 3.5 | 3.5 | 0.00 | 0.00 | 0.00 | 11 | 1003.5 |
| 20260504004021 | 89 | 232 | 4.3 | 4.3 | 0.00 | 0.00 | 0.00 | 11 | 1003.5 |
| 20260504003026 | 90 | 218 | 4.3 | 140.8 | 0.00 | 0.00 | 0.00 | 11 | 1003.4 |
| 20260504002042 | 90 | 238 | 5.2 | 5.2 | 0.00 | 0.00 | 0.00 | 10 | 1003.4 |
| 20260504001028 | 90 | 226 | 4.3 | 140.8 | 0.00 | 0.00 | 0.00 | 10 | 1003.3 |
| 20260504000019 | 90 | 236 | 5.2 | 140.8 | 0.00 | 0.00 | 0.00 | 10 | 1003.3 |
| 20260503235025 | 90 | 235 | 5.2 | 139.9 | 0.00 | 0.00 | 0.00 | 11 | 1003.3 |
| 20260503234024 | 91 | 221 | 5.2 | 139.9 | 0.00 | 0.00 | 0.00 | 11 | 1003.0 |
| 20260503233059 | 91 | 239 | 5.2 | 6.1 | 0.00 | 0.00 | 0.00 | 11 | 1003.2 |
| 20260503232047 | 91 | 222 | 6.1 | 140.8 | 0.00 | 0.00 | 0.00 | 11 | 1003.1 |
| 20260503231029 | 91 | 232 | 5.2 | 139.9 | 0.00 | 0.00 | 0.00 | 12 | 1003.1 |
| 20260503230024 | 91 | 223 | 4.3 | 140.8 | 0.00 | 0.00 | 0.00 | 13 | 1003.1 |
| 20260503225021 | 91 | 228 | 5.2 | 6.1 | 0.00 | 0.00 | 0.00 | 14 | 1003.2 |
| 20260503224038 | 91 | 228 | 4.3 | 140.8 | 0.00 | 0.00 | 0.00 | 15 | 1003.4 |
| 20260503223036 | 91 | 249 | 3.5 | 3.5 | 0.00 | 0.00 | 0.00 | 16 | 1003.4 |
| 20260503222025 | 91 | 218 | 1.7 | 1.7 | 0.00 | 0.00 | 0.00 | 18 | 1003.4 |
| 20260503221019 | 90 | 215 | 1.7 | 1.7 | 0.00 | 0.00 | 0.00 | 20 | 1003.5 |
| 20260503220025 | 90 | 179 | 1.7 | 1.7 | 0.00 | 0.00 | 0.00 | 21 | 1003.5 |
| 20260503215028 | 90 | 72 | 1.7 | 1.7 | 0.00 | 0.00 | 0.00 | 21 | 1003.6 |
| 20260503214027 | 89 | 90 | 1.7 | 1.7 | 0.00 | 0.00 | 0.00 | 22 | 1004.1 |